When you browse on this site, cookies collect data to enhance your experience and personalize the content and advertising you see.
Visit our Privacy Policy to learn more. By continuing to use the site, you agree to this use of cookies and data.
  • In Hungary
  • List of Countries
  • For 7 days
  • Water Temperature
  • Weather Map
  • News
  • Weather Widgets
  • user-avatar
    Login

    Hourly Weather Sushki

    Today, 20 January, Monday

    Time Temperature Precipitation Wind Pressure Humidity
    00:00 -2°C° 0 mm 3 mps 759 mmHg 93%
    01:00 -3°C° 0 mm 4 mps 759 mmHg 93%
    02:00 -3°C° 0 mm 4 mps 759 mmHg 93%
    03:00 -3°C° 0 mm 4 mps 759 mmHg 93%
    04:00 -3°C° 0 mm 4 mps 759 mmHg 92%
    05:00 -3°C° 0 mm 4 mps 759 mmHg 92%
    06:00 -2°C° 0 mm 4 mps 758 mmHg 92%
    07:00 -2°C° 0 mm 4 mps 758 mmHg 92%
    08:00 -2°C° 0 mm 5 mps 758 mmHg 92%
    09:00 -2°C° 0 mm 5 mps 758 mmHg 92%
    10:00 -2°C° 0 mm 5 mps 758 mmHg 92%
    11:00 -2°C° 0 mm 5 mps 758 mmHg 91%
    12:00 -2°C° 0 mm 6 mps 757 mmHg 91%
    13:00 -1°C° 0 mm 5 mps 757 mmHg 91%
    14:00 -1°C° 0 mm 5 mps 757 mmHg 92%
    15:00 -1°C° 0 mm 5 mps 757 mmHg 92%
    16:00 -1°C° 0 mm 5 mps 757 mmHg 94%
    17:00 -1°C° 0 mm 5 mps 757 mmHg 95%
    18:00 -2°C° 0 mm 6 mps 756 mmHg 96%
    19:00 -1°C° 0 mm 5 mps 756 mmHg 96%
    20:00 -1°C° 0 mm 5 mps 756 mmHg 95%
    21:00 -1°C° 0 mm 5 mps 756 mmHg 95%
    22:00 -1°C° 0 mm 5 mps 755 mmHg 95%
    23:00 -1°C° 0 mm 5 mps 755 mmHg 95%

    Tomorrow, 21 January, Tuesday

    Time Temperature Precipitation Wind Pressure Humidity
    00:00 -2°C° 0 mm 5 mps 755 mmHg 95%
    01:00 -2°C° 0 mm 5 mps 754 mmHg 95%
    02:00 -3°C° 0 mm 6 mps 754 mmHg 95%
    03:00 -3°C° 0 mm 6 mps 754 mmHg 94%
    04:00 -2°C° 0 mm 5 mps 753 mmHg 92%
    05:00 -4°C° 0 mm 5 mps 752 mmHg 91%
    06:00 -4°C° 0 mm 5 mps 751 mmHg 89%
    07:00 -4°C° 0.1 mm 6 mps 751 mmHg 91%
    08:00 -4°C° 0.1 mm 6 mps 750 mmHg 93%
    09:00 -4°C° 0.1 mm 6 mps 750 mmHg 95%
    10:00 -4°C° 0.4 mm 7 mps 749 mmHg 95%
    11:00 -4°C° 0.4 mm 7 mps 748 mmHg 94%
    12:00 -4°C° 0.4 mm 8 mps 747 mmHg 94%
    13:00 -3°C° 0.5 mm 7 mps 747 mmHg 95%
    14:00 -2°C° 0.5 mm 7 mps 746 mmHg 95%
    15:00 -2°C° 0.5 mm 7 mps 746 mmHg 96%
    16:00 -1°C° 0 mm 7 mps 745 mmHg 96%
    17:00 -1°C° 0 mm 6 mps 744 mmHg 96%
    18:00 -1°C° 0 mm 6 mps 743 mmHg 97%
    19:00 -1°C° 0.4 mm 6 mps 742 mmHg 97%
    20:00 -1°C° 0.4 mm 6 mps 742 mmHg 97%
    21:00 -1°C° 0.4 mm 6 mps 741 mmHg 97%
    22:00 -1°C° 0.8 mm 6 mps 740 mmHg 97%
    23:00 +1°C° 0.8 mm 6 mps 740 mmHg 97%

    Day after tomorrow, 22 January, Wednesday

    Time Temperature Precipitation Wind Pressure Humidity
    00:00 +1°C° 0.8 mm 6 mps 739 mmHg 97%
    01:00 +1°C° 0.2 mm 6 mps 739 mmHg 95%
    02:00 +1°C° 0.2 mm 6 mps 739 mmHg 93%
    03:00 0°C° 0.2 mm 7 mps 739 mmHg 92%
    04:00 -1°C° 0 mm 7 mps 739 mmHg 88%
    05:00 -2°C° 0 mm 7 mps 739 mmHg 85%
    06:00 -2°C° 0 mm 7 mps 738 mmHg 82%
    07:00 -3°C° 0 mm 6 mps 738 mmHg 82%
    08:00 -3°C° 0 mm 6 mps 738 mmHg 81%
    09:00 -4°C° 0 mm 5 mps 738 mmHg 81%
    10:00 -3°C° 0 mm 6 mps 738 mmHg 80%
    11:00 -3°C° 0 mm 6 mps 738 mmHg 79%
    12:00 -3°C° 0 mm 6 mps 738 mmHg 78%
    13:00 -3°C° 0 mm 6 mps 737 mmHg 79%
    14:00 -3°C° 0 mm 6 mps 737 mmHg 79%
    15:00 -2°C° 0 mm 5 mps 737 mmHg 80%
    16:00 -2°C° 0 mm 5 mps 736 mmHg 81%
    17:00 -4°C° 0 mm 5 mps 736 mmHg 82%
    18:00 -3°C° 0 mm 4 mps 736 mmHg 83%
    19:00 -3°C° 0 mm 4 mps 736 mmHg 83%
    20:00 -3°C° 0 mm 4 mps 736 mmHg 84%
    21:00 -5°C° 0 mm 5 mps 736 mmHg 85%
    22:00 -4°C° 0 mm 4 mps 736 mmHg 84%
    23:00 -4°C° 0 mm 4 mps 736 mmHg 84%

    23 January, Thursday

    Time Temperature Precipitation Wind Pressure Humidity
    00:00 -4°C° 0 mm 4 mps 736 mmHg 83%
    01:00 -5°C° 0 mm 5 mps 736 mmHg 83%
    02:00 -6°C° 0 mm 5 mps 737 mmHg 83%
    03:00 -6°C° 0 mm 5 mps 737 mmHg 83%
    04:00 -6°C° 0.1 mm 5 mps 737 mmHg 85%
    05:00 -6°C° 0.1 mm 6 mps 737 mmHg 86%
    06:00 -6°C° 0.1 mm 6 mps 737 mmHg 88%
    07:00 -6°C° 0.1 mm 6 mps 738 mmHg 84%
    08:00 -8°C° 0.1 mm 6 mps 739 mmHg 80%
    09:00 -8°C° 0.1 mm 7 mps 739 mmHg 77%
    10:00 -8°C° 0 mm 7 mps 740 mmHg 75%
    11:00 -8°C° 0 mm 7 mps 741 mmHg 73%
    12:00 -8°C° 0 mm 7 mps 741 mmHg 71%
    13:00 -9°C° 0 mm 7 mps 742 mmHg 72%
    14:00 -9°C° 0 mm 7 mps 743 mmHg 73%
    15:00 -9°C° 0 mm 7 mps 743 mmHg 73%
    16:00 -9°C° 0 mm 7 mps 744 mmHg 74%
    17:00 -9°C° 0 mm 6 mps 745 mmHg 74%
    18:00 -10°C° 0 mm 6 mps 746 mmHg 74%
    19:00 -10°C° 0 mm 6 mps 746 mmHg 74%
    20:00 -10°C° 0 mm 5 mps 747 mmHg 74%
    21:00 -11°C° 0 mm 5 mps 748 mmHg 74%
    22:00 -10°C° 0 mm 4 mps 748 mmHg 75%
    23:00 -10°C° 0 mm 4 mps 749 mmHg 76%

    24 January, Friday

    Time Temperature Precipitation Wind Pressure Humidity
    00:00 -11°C° 0 mm 4 mps 749 mmHg 77%
    01:00 -11°C° 0 mm 4 mps 749 mmHg 77%
    02:00 -11°C° 0 mm 4 mps 749 mmHg 77%
    03:00 -11°C° 0 mm 4 mps 749 mmHg 77%
    04:00 -11°C° 0 mm 4 mps 749 mmHg 78%
    05:00 -10°C° 0 mm 4 mps 748 mmHg 78%
    06:00 -10°C° 0 mm 4 mps 748 mmHg 79%
    07:00 -10°C° 0 mm 4 mps 747 mmHg 80%
    08:00 -10°C° 0 mm 5 mps 746 mmHg 82%
    09:00 -9°C° 0 mm 6 mps 746 mmHg 83%
    10:00 -9°C° 0.2 mm 6 mps 745 mmHg 86%
    11:00 -8°C° 0.2 mm 7 mps 744 mmHg 89%
    12:00 -7°C° 0.2 mm 8 mps 744 mmHg 92%
    13:00 -7°C° 0.3 mm 7 mps 743 mmHg 93%
    14:00 -6°C° 0.3 mm 7 mps 742 mmHg 94%
    15:00 -6°C° 0.3 mm 7 mps 741 mmHg 95%
    16:00 -4°C° 0.3 mm 7 mps 741 mmHg 94%
    17:00 -3°C° 0.3 mm 6 mps 741 mmHg 94%
    18:00 -2°C° 0.3 mm 6 mps 741 mmHg 93%
    19:00 -3°C° 0 mm 6 mps 742 mmHg 91%
    20:00 -2°C° 0 mm 5 mps 742 mmHg 90%
    21:00 -4°C° 0 mm 5 mps 742 mmHg 88%
    22:00 -4°C° 0 mm 5 mps 743 mmHg 88%
    23:00 -4°C° 0 mm 4 mps 743 mmHg 89%

    25 January, Saturday

    Time Temperature Precipitation Wind Pressure Humidity
    00:00 -4°C° 0 mm 4 mps 744 mmHg 89%
    01:00 -4°C° 0 mm 4 mps 744 mmHg 90%
    02:00 -5°C° 0 mm 4 mps 744 mmHg 91%
    03:00 -5°C° 0 mm 3 mps 744 mmHg 92%
    04:00 -5°C° 0 mm 3 mps 744 mmHg 93%
    05:00 -5°C° 0 mm 3 mps 745 mmHg 94%
    06:00 -4°C° 0 mm 3 mps 745 mmHg 94%
    07:00 -4°C° 0 mm 3 mps 745 mmHg 94%
    08:00 -4°C° 0 mm 3 mps 745 mmHg 94%
    09:00 -4°C° 0 mm 3 mps 745 mmHg 94%
    10:00 -2°C° 0 mm 3 mps 745 mmHg 95%
    11:00 -1°C° 0 mm 3 mps 745 mmHg 96%
    12:00 0°C° 0 mm 3 mps 745 mmHg 97%
    13:00 0°C° 0.2 mm 3 mps 745 mmHg 97%
    14:00 -1°C° 0.2 mm 4 mps 745 mmHg 97%
    15:00 -1°C° 0.2 mm 4 mps 744 mmHg 98%
    16:00 -1°C° 0.2 mm 4 mps 744 mmHg 98%
    17:00 -1°C° 0.2 mm 4 mps 744 mmHg 98%
    18:00 -1°C° 0.2 mm 4 mps 744 mmHg 98%
    19:00 -1°C° 0 mm 4 mps 745 mmHg 97%
    20:00 -1°C° 0 mm 4 mps 745 mmHg 97%
    21:00 -1°C° 0 mm 4 mps 745 mmHg 97%
    22:00 -1°C° 0 mm 4 mps 745 mmHg 97%
    23:00 -1°C° 0 mm 4 mps 746 mmHg 97%
    Show more